Flag for Czech Republic Weather past 2 weeks in Prague, Czech Republic

Now
45 °F

Fog.


Feels Like: 45 °F
Forecast: 41 / 55 °F
Wind: 2 mph from North

Location: Prague Ruzyne Airport

Current Time: Apr 27, 2015 at 6:15:56 AM

Latest Report: Apr 27, 2015 at 5:30 AM


Visibility: 0 mi

Pressure: 29.62 "Hg

Humidity: 100%

Dew point: 45 °F

Location of PragueLocation

Historic Weather in Prague — Graph

°F

Prague temperature yesterday

Maximum temperature yesterday: 64 °F (at 3:00 PM)
Minimum temperature yesterday: 54 °F (at 1:30 AM)
Average temperature yesterday: 57 °F

Past Weeks' High & Low Weather Summary

 TemperatureHumidityPressure
High73 °F (Apr 15, 3:00 PM)100% (Apr 27, 4:00 AM)30.42 "Hg (Apr 27, 4:00 AM)
Low30 °F (Apr 19, 6:00 AM)20% (Apr 15, 5:00 PM)29.65 "Hg (Apr 27, 3:30 AM)
Average51 °F60%30.09 "Hg
* Reported Apr 12 4:00 AM — Apr 27 4:30 AM, Prague, Weather by CustomWeather, © 2015

Note: Actual official high and low records may vary slightly from our data, if they occured in-between our weather recording intervals... More about our weather records

Advertising

Prague weather history for previous 24 hours

 ConditionsComfort  
Time TempWeatherWind HumidityBarometerVisibility
4:30 AM
Mon, Apr 27
45 °FQuite cool.3 mph100%29.65 "Hg2 mi
4:00 AM48 °FCool.1 mph100%29.65 "Hg5 mi
3:30 AM48 °FPassing clouds.2 mph94%29.65 "Hg10 mi
3:00 AM50 °FClear.6 mph88%29.68 "Hg10 mi
2:30 AM54 °FClear.5 mph82%29.68 "Hg10 mi
2:00 AM54 °FClear.5 mph82%29.68 "Hg10 mi
1:30 AM52 °FClear.7 mph82%29.71 "Hg10 mi
1:00 AM52 °FClear.7 mph88%29.71 "Hg10 mi
12:30 AM54 °FClear.6 mph82%29.71 "Hg10 mi
12:00 AM54 °FClear.6 mph82%29.71 "Hg10 mi
11:30 PM
Sun, Apr 26
55 °FClear.6 mph82%29.71 "Hg10 mi
11:00 PM55 °FClear.6 mph82%29.71 "Hg10 mi
10:30 PM54 °FClear.6 mph88%29.74 "Hg10 mi
10:00 PM55 °FClear.5 mph82%29.74 "Hg10 mi
9:30 PM57 °FClear.6 mph77%29.74 "Hg10 mi
9:00 PM55 °FSunny.7 mph82%29.74 "Hg10 mi
8:30 PM57 °FSunny.7 mph82%29.74 "Hg10 mi
8:00 PM59 °FPassing clouds.6 mph77%29.74 "HgN/A
7:30 PM59 °FSunny.6 mph82%29.74 "Hg10 mi
7:00 PM63 °FPassing clouds.3 mph68%29.74 "HgN/A
6:30 PM63 °FPassing clouds.2 mph64%29.74 "HgN/A
6:00 PM64 °FPassing clouds.2 mph60%29.74 "HgN/A
5:30 PM63 °FPassing clouds.2 mph68%29.74 "HgN/A
5:00 PM61 °FPassing clouds.6 mph77%29.77 "HgN/A
4:30 PM61 °FSprinkles. Scattered clouds.2 mph72%29.77 "HgN/A
4:00 PM61 °FThunderstorms. Scattered clouds.No wind68%29.77 "HgN/A
3:30 PM59 °FScattered clouds.10 mph82%29.77 "HgN/A
3:00 PM64 °FScattered clouds.7 mph64%29.77 "HgN/A
2:30 PM61 °FScattered clouds.9 mph68%29.80 "HgN/A
2:00 PM59 °FSprinkles. Scattered clouds.12 mph77%29.80 "HgN/A
1:30 PM63 °FScattered clouds.8 mph64%29.80 "HgN/A
1:00 PM63 °FScattered clouds.7 mph68%29.80 "HgN/A
12:30 PM61 °FScattered clouds.6 mph72%29.80 "HgN/A
12:00 PM57 °FScattered clouds.9 mph77%29.83 "HgN/A
11:30 AM59 °FScattered clouds.7 mph77%29.83 "HgN/A
11:00 AM57 °FScattered clouds.8 mph82%29.83 "HgN/A
10:30 AM57 °FPartly sunny.10 mph82%29.83 "HgN/A
10:00 AM55 °FPassing clouds.9 mph88%29.83 "HgN/A
9:30 AM55 °FScattered clouds.10 mph88%29.83 "HgN/A
9:00 AM55 °FSprinkles. Scattered clouds.12 mph88%29.83 "HgN/A
8:30 AM55 °FLight rain. Partly sunny.13 mph88%29.83 "HgN/A
8:00 AM55 °FLight rain. Passing clouds.12 mph82%29.83 "HgN/A
7:30 AM55 °FLight rain. Scattered clouds.10 mph82%29.83 "HgN/A
7:00 AM54 °FLight rain. Partly sunny.12 mph88%29.83 "HgN/A
6:30 AM54 °FPassing clouds.7 mph88%29.83 "HgN/A
6:00 AM54 °FPassing clouds.7 mph88%29.83 "HgN/A
Weather by CustomWeather, © 2015

See weather overviewHow to use our weather pages